Location: Club d'Astronomie Sirius du Saguenay
(48.5448°N, 71.1471°W)
Time: 04:00:10
(UTC-04:00)

Envisat - Visible Passes

Search period start: 23 October 2017 00:00
Search period end: 02 November 2017 00:00
Orbit: 764 x 766 km, 98.2° (Epoch: 22 October)

Date Brightness Start Highest point End Pass type
(mag) Time Alt. Az. Time Alt. Az. Time Alt. Az.
23 Oct 3.3 19:47:50 46° ENE 19:47:50 46° ENE 19:52:34 10° N visible
23 Oct 5.0 21:28:03 25° WNW 21:28:03 25° WNW 21:31:15 10° NW visible
24 Oct 4.0 19:10:51 24° ENE 19:11:18 24° ENE 19:15:20 10° N visible
24 Oct 3.9 20:51:04 46° WNW 20:51:04 46° WNW 20:55:00 10° NNW visible
25 Oct 4.7 18:33:51 12° ENE 18:35:04 13° NE 18:37:24 10° NNE visible
25 Oct 3.2 20:14:04 60° NNE 20:14:04 60° NNE 20:18:20 10° N visible
25 Oct 5.7 21:54:17 15° WNW 21:54:17 15° WNW 21:56:02 10° NW visible
26 Oct 3.6 19:37:05 37° NE 19:37:05 37° NE 19:41:21 10° N visible
26 Oct 4.8 21:17:18 27° WNW 21:17:18 27° WNW 21:20:20 10° NNW visible
27 Oct 4.3 19:00:05 20° ENE 19:00:18 20° ENE 19:03:58 10° NNE visible
27 Oct 3.9 20:40:18 45° NW 20:40:18 45° NW 20:43:56 10° NNW visible
28 Oct 4.8 18:23:05 10° ENE 18:24:08 11° NE 18:25:27 10° NE visible
28 Oct 3.4 20:03:18 48° NNE 20:03:18 48° NNE 20:07:11 10° N visible
28 Oct 5.6 21:43:31 17° WNW 21:43:31 17° WNW 21:45:21 10° NW visible
29 Oct 3.9 19:26:18 30° NE 19:26:18 30° NE 19:30:06 10° N visible
29 Oct 4.7 21:06:31 29° NW 21:06:31 29° NW 21:09:22 10° NNW visible
30 Oct 4.5 18:49:19 17° ENE 18:49:21 17° ENE 18:52:33 10° NNE visible
30 Oct 3.9 20:29:31 42° NNW 20:29:31 42° NNW 20:32:50 10° NNW visible
31 Oct 3.7 19:52:31 38° NNE 19:52:31 38° NNE 19:56:00 10° N visible
31 Oct 5.5 21:32:44 18° NW 21:32:44 18° NW 21:34:32 10° NW visible
01 Nov 4.1 19:15:31 25° NE 19:15:31 25° NE 19:18:48 10° N visible
01 Nov 4.7 20:55:44 29° NW 20:55:44 29° NW 20:58:21 10° NNW visible
